DW5330 Weather Reports


time (UTC)temp
C
wind
direction
speed
KPH
gust
KPH
rain 1hr
cm
rain 24hr
cm
rain mn
cm
humidity
%
barometer
mb
20260510000005 18 254 4.8 8.0 0.00 0.00 0.00 68 1028.5
20260509234005 17 309 1.6 3.2 0.00 0.00 0.00 67 1028.4
20260509232505 17 179 1.6 9.7 0.00 0.00 0.00 68 1028.4
20260509231005 18 159 1.6 4.8 0.00 0.00 0.00 67 1028.5
20260509230505 18 189 0.0 1.6 0.00 0.00 0.00 65 1028.5
20260509225505 17 203 1.6 4.8 0.00 0.00 0.00 68 1028.5
20260509225004 16 202 0.0 1.6 0.00 0.00 0.00 68 1028.5
20260509224005 16 183 1.6 4.8 0.00 0.00 0.00 69 1028.4
20260509223005 16 176 1.6 4.8 0.00 0.00 0.00 68 1028.3
20260509222006 15 300 3.2 8.0 0.00 0.00 0.00 69 1028.2
20260509221005 15 178 0.0 3.2 0.00 0.00 0.00 70 1028.2
20260509215005 14 122 0.0 3.2 0.00 0.00 0.00 72 1028.1
20260509214505 14 143 1.6 3.2 0.00 0.00 0.00 73 1028.0
20260509214005 14 144 1.6 4.8 0.00 0.00 0.00 74 1028.0
20260509213505 14 258 1.6 8.0 0.00 0.00 0.00 74 1027.9
20260509212005 13 157 1.6 3.2 0.00 0.00 0.00 77 1027.7
20260509211505 13 120 1.6 4.8 0.00 0.00 0.00 78 1027.6
20260509211005 13 222 1.6 4.8 0.00 0.00 0.00 79 1027.5
20260509210505 12 223 3.2 4.8 0.00 0.00 0.00 80 1027.5
20260509205005 12 232 1.6 3.2 0.00 0.00 0.00 81 1027.3
20260509204504 12 203 1.6 3.2 0.00 0.00 0.00 81 1027.2
20260509204005 12 152 1.6 4.8 0.00 0.00 0.00 81 1027.1
20260509203505 12 183 1.6 4.8 0.00 0.00 0.00 81 1027.1
20260509193505 13 211 1.6 3.2 0.00 0.00 0.00 79 1026.5
20260509191004 13 132 1.6 3.2 0.00 0.00 0.00 80 1026.2
20260509190505 13 154 0.0 3.2 0.00 0.00 0.00 80 1026.1
20260509185504 13 173 1.6 3.2 0.00 0.00 0.00 80 1026.0
20260509184005 13 222 0.0 3.2 0.00 0.00 0.00 80 1026.0
20260509183005 13 148 0.0 3.2 0.00 0.00 0.00 79 1025.8
20260509182504 13 222 0.0 3.2 0.00 0.00 0.00 79 1025.8
20260509181505 13 238 0.0 1.6 0.00 0.00 0.00 79 1025.7
20260509180005 13 299 0.0 4.8 0.00 0.00 0.00 79 1025.7
20260509175504 13 262 0.0 3.2 0.00 0.00 0.00 79 1025.7
20260509175005 13 165 0.0 3.2 0.00 0.00 0.00 79 1025.6
20260509174504 13 186 0.0 1.6 0.00 0.00 0.00 79 1025.6
20260509174005 13 191 1.6 3.2 0.00 0.00 0.00 79 1025.6
20260509173004 13 245 1.6 3.2 0.00 0.00 0.00 80 1025.6
20260509172504 13 168 0.0 1.6 0.00 0.00 0.00 80 1025.6
20260509171504 13 193 0.0 1.6 0.00 0.00 0.00 80 1025.7
20260509171005 13 142 1.6 3.2 0.00 0.00 0.00 80 1025.7
20260509170004 13 153 0.0 0.0 0.00 0.00 0.00 80 1025.7
20260509165505 13 164 0.0 1.6 0.00 0.00 0.00 80 1025.7
20260509165005 13 168 0.0 1.6 0.00 0.00 0.00 80 1025.6
20260509164505 13 153 0.0 1.6 0.00 0.00 0.00 80 1025.6
20260509163005 14 152 0.0 0.0 0.00 0.00 0.00 79 1025.6
20260509161004 14 175 0.0 1.6 0.00 0.00 0.00 78 1025.7
20260509160007 14 148 0.0 1.6 0.00 0.00 0.00 78 1025.7
20260509152507 15 133 0.0 1.6 0.00 0.00 0.00 76 1025.7
20260509151007 15 157 0.0 0.0 0.00 0.00 0.00 76 1025.8
20260509150007 15 180 0.0 0.0 0.00 0.00 0.00 76 1025.7
20260509145506 15 180 0.0 1.6 0.00 0.00 0.00 76 1025.7
20260509144007 15 156 0.0 1.6 0.00 0.00 0.00 75 1025.8
20260509143007 15 145 0.0 1.6 0.00 0.00 0.00 75 1025.8
20260509142007 15 153 0.0 0.0 0.00 0.00 0.00 75 1025.7
20260509140007 15 167 0.0 1.6 0.00 0.00 0.00 74 1025.7
20260509135507 15 183 0.0 1.6 0.00 0.00 0.00 74 1025.7
20260509134507 15 152 1.6 3.2 0.00 0.00 0.00 74 1025.8
20260509133007 15 154 0.0 1.6 0.00 0.00 0.00 73 1025.8
20260509132007 15 201 0.0 0.0 0.00 0.00 0.00 73 1025.8
20260509131507 15 201 0.0 0.0 0.00 0.00 0.00 73 1025.9
20260509125506 15 137 0.0 1.6 0.00 0.00 0.00 73 1025.8
20260509125007 15 149 0.0 0.0 0.00 0.00 0.00 73 1025.8
20260509124006 15 167 0.0 3.2 0.00 0.00 0.00 72 1025.9
20260509122006 16 135 1.6 3.2 0.00 0.00 0.00 72 1025.9
20260509121006 16 154 1.6 3.2 0.00 0.00 0.00 72 1026.0
20260509120507 16 191 0.0 1.6 0.00 0.00 0.00 72 1026.0
20260509120006 16 169 1.6 3.2 0.00 0.00 0.00 72 1026.0
20260509114507 16 149 0.0 1.6 0.00 0.00 0.00 72 1025.9
20260509114007 16 169 0.0 1.6 0.00 0.00 0.00 72 1025.9
20260509112506 16 154 0.0 1.6 0.00 0.00 0.00 72 1025.8
20260509112006 16 138 0.0 1.6 0.00 0.00 0.00 71 1025.8
20260509111506 16 147 0.0 0.0 0.00 0.00 0.00 71 1025.8
20260509111006 16 147 0.0 0.0 0.00 0.00 0.00 71 1025.8
20260509110506 16 147 0.0 0.0 0.00 0.00 0.00 70 1025.8
20260509110006 16 147 0.0 0.0 0.00 0.00 0.00 70 1025.7
20260509105006 16 147 0.0 0.0 0.00 0.00 0.00 69 1025.7
20260509104506 16 147 0.0 0.0 0.00 0.00 0.00 69 1025.7
20260509104006 16 147 0.0 0.0 0.00 0.00 0.00 69 1025.7
20260509103007 16 147 0.0 0.0 0.00 0.00 0.00 69 1025.6
20260509100506 17 147 0.0 0.0 0.00 0.00 0.00 68 1025.5
20260509100006 17 147 0.0 0.0 0.00 0.00 0.00 68 1025.5
20260509094007 17 160 1.6 3.2 0.00 0.00 0.00 66 1025.3
20260509093007 17 180 0.0 1.6 0.00 0.00 0.00 67 1025.3
20260509092007 17 165 0.0 0.0 0.00 0.00 0.00 67 1025.1
20260509090506 17 171 0.0 3.2 0.00 0.00 0.00 68 1025.0
20260509085506 17 169 0.0 1.6 0.00 0.00 0.00 68 1024.8
20260509084506 17 170 1.6 3.2 0.00 0.00 0.00 67 1024.7
20260509082006 17 160 1.6 3.2 0.00 0.00 0.00 67 1024.5
20260509080506 17 178 1.6 3.2 0.00 0.00 0.00 67 1024.4
20260509075506 17 173 3.2 4.8 0.00 0.00 0.00 67 1024.2
20260509073506 17 179 3.2 4.8 0.00 0.00 0.00 67 1024.1
20260509073006 17 172 3.2 8.0 0.00 0.00 0.00 67 1024.0
20260509072506 17 164 4.8 4.8 0.00 0.00 0.00 67 1024.0
20260509071006 17 165 4.8 8.0 0.00 0.00 0.00 66 1023.8
20260509065006 18 159 8.0 11.3 0.00 0.00 0.00 65 1023.6
20260509064005 18 162 4.8 12.9 0.00 0.00 0.00 65 1023.6
20260509063006 18 158 4.8 11.3 0.00 0.00 0.00 63 1023.5
20260509062506 18 155 8.0 12.9 0.00 0.00 0.00 63 1023.5
20260509062006 18 180 6.4 19.3 0.00 0.00 0.00 63 1023.4
20260509061006 18 173 4.8 14.5 0.00 0.00 0.00 62 1023.3
20260509055506 18 174 3.2 9.7 0.00 0.00 0.00 62 1023.2
20260509054506 18 164 6.4 11.3 0.00 0.00 0.00 63 1023.1
20260509053506 18 176 8.0 14.5 0.00 0.00 0.00 62 1023.0
20260509052506 18 173 9.7 19.3 0.00 0.00 0.00 62 1023.0
20260509051506 18 169 9.7 19.3 0.00 0.00 0.00 63 1023.0
20260509050505 18 172 8.0 16.1 0.00 0.00 0.00 62 1023.0
20260509043506 18 175 9.7 20.9 0.00 0.00 0.00 60 1022.9
20260509043006 18 185 4.8 16.1 0.00 0.00 0.00 59 1022.9
20260509042506 18 175 8.0 20.9 0.00 0.00 0.00 59 1022.9
20260509041506 18 180 4.8 12.9 0.00 0.00 0.00 59 1022.9
20260509041006 18 174 3.2 12.9 0.00 0.00 0.00 59 1022.9
20260509031505 18 167 9.7 14.5 0.00 0.00 0.00 58 1023.0
20260509031006 18 159 4.8 14.5 0.00 0.00 0.00 58 1023.0
20260509030505 18 181 8.0 14.5 0.00 0.00 0.00 58 1023.1
20260509025006 19 169 8.0 12.9 0.00 0.00 0.00 57 1023.2
20260509023005 20 173 8.0 19.3 0.00 0.00 0.00 55 1023.5
20260509021506 19 172 6.4 14.5 0.00 0.00 0.00 55 1023.7
20260509021006 19 159 3.2 11.3 0.00 0.00 0.00 54 1023.7
20260509020505 19 160 8.0 12.9 0.00 0.00 0.00 56 1023.8
20260509020005 19 160 4.8 12.9 0.00 0.00 0.00 55 1023.9
20260509015505 19 163 3.2 9.7 0.00 0.00 0.00 55 1023.9
20260509015005 19 185 4.8 14.5 0.00 0.00 0.00 55 1024.0
20260509013505 20 164 0.0 9.7 0.00 0.00 0.00 52 1024.1
20260509012005 20 120 1.6 3.2 0.00 0.00 0.00 52 1024.2
20260509011005 20 124 1.6 4.8 0.00 0.00 0.00 54 1024.1
20260509010506 20 173 3.2 3.2 0.00 0.00 0.00 54 1024.2
20260509005006 20 48 1.6 3.2 0.00 0.00 0.00 53 1024.4
20260509004005 20 71 0.0 1.6 0.00 0.00 0.00 52 1024.4
20260509003505 20 161 1.6 3.2 0.00 0.00 0.00 53 1024.4
20260509002505 19 133 1.6 3.2 0.00 0.00 0.00 55 1024.4
20260509002006 18 103 1.6 3.2 0.00 0.00 0.00 56 1024.5
20260509001005 18 125 1.6 4.8 0.00 0.00 0.00 56 1024.5
20260509000506 18 163 1.6 4.8 0.00 0.00 0.00 57 1024.5